When you browse on this site, cookies collect data to enhance your experience and personalize the content and advertising you see.
Visit our Privacy Policy to learn more. By continuing to use the site, you agree to this use of cookies and data.
  • In Czech Republic
  • List of Countries
  • For 7 days
  • Water Temperature
  • Satellite Maps
  • Weather Map
  • Weather Widgets
  • user-avatar
    Login

    Hourly Weather Wuhan

    Today, 22 January, Tuesday

    Time Temperature Precipitation Wind Pressure Humidity
    00:00 +5°C° 0 mm 3 mps 768 mmHg 43%
    01:00 +4°C° 0 mm 3 mps 768 mmHg 45%
    02:00 +5°C° 0 mm 2 mps 768 mmHg 48%
    03:00 +5°C° 0 mm 2 mps 768 mmHg 51%
    04:00 +4°C° 0 mm 2 mps 768 mmHg 53%
    05:00 +4°C° 0 mm 2 mps 767 mmHg 55%
    06:00 +4°C° 0 mm 2 mps 767 mmHg 56%
    07:00 +4°C° 0 mm 2 mps 767 mmHg 57%
    08:00 +3°C° 0 mm 2 mps 767 mmHg 58%
    09:00 +5°C° 0 mm 2 mps 767 mmHg 53%
    10:00 +7°C° 0 mm 2 mps 768 mmHg 47%
    11:00 +8°C° 0 mm 3 mps 768 mmHg 41%
    12:00 +10°C° 0 mm 3 mps 767 mmHg 38%
    13:00 +11°C° 0 mm 3 mps 767 mmHg 35%
    14:00 +13°C° 0 mm 3 mps 766 mmHg 32%
    15:00 +14°C° 0 mm 2 mps 766 mmHg 32%
    16:00 +14°C° 0 mm 2 mps 765 mmHg 33%
    17:00 +14°C° 0 mm 2 mps 765 mmHg 34%
    18:00 +13°C° 0 mm 2 mps 765 mmHg 37%
    19:00 +12°C° 0 mm 2 mps 765 mmHg 41%
    20:00 +11°C° 0 mm 1 mps 765 mmHg 44%
    21:00 +10°C° 0 mm 1 mps 765 mmHg 46%
    22:00 +10°C° 0 mm 1 mps 765 mmHg 48%
    23:00 +9°C° 0 mm 1 mps 766 mmHg 49%

    Tomorrow, 23 January, Wednesday

    Time Temperature Precipitation Wind Pressure Humidity
    00:00 +9°C° 0 mm 1 mps 766 mmHg 50%
    01:00 +8°C° 0 mm 1 mps 765 mmHg 51%
    02:00 +8°C° 0 mm 1 mps 765 mmHg 52%
    03:00 +7°C° 0 mm 1 mps 765 mmHg 52%
    04:00 +7°C° 0 mm 1 mps 765 mmHg 53%
    05:00 +7°C° 0 mm 1 mps 765 mmHg 53%
    06:00 +7°C° 0 mm 1 mps 765 mmHg 53%
    07:00 +7°C° 0 mm 1 mps 765 mmHg 53%
    08:00 +6°C° 0 mm 1 mps 766 mmHg 53%
    09:00 +8°C° 0 mm 1 mps 766 mmHg 47%
    10:00 +10°C° 0 mm 1 mps 766 mmHg 41%
    11:00 +10°C° 0 mm 2 mps 766 mmHg 36%
    12:00 +12°C° 0 mm 2 mps 765 mmHg 32%
    13:00 +13°C° 0 mm 2 mps 765 mmHg 29%
    14:00 +15°C° 0 mm 2 mps 764 mmHg 25%
    15:00 +15°C° 0 mm 2 mps 764 mmHg 26%
    16:00 +15°C° 0 mm 2 mps 764 mmHg 27%
    17:00 +15°C° 0 mm 2 mps 764 mmHg 28%
    18:00 +14°C° 0 mm 2 mps 764 mmHg 31%
    19:00 +13°C° 0 mm 2 mps 764 mmHg 34%
    20:00 +12°C° 0 mm 2 mps 765 mmHg 37%
    21:00 +10°C° 0 mm 2 mps 765 mmHg 39%
    22:00 +10°C° 0 mm 2 mps 765 mmHg 41%
    23:00 +9°C° 0 mm 2 mps 765 mmHg 43%

    Day after tomorrow, 24 January, Thursday

    Time Temperature Precipitation Wind Pressure Humidity
    00:00 +9°C° 0 mm 2 mps 765 mmHg 45%
    01:00 +8°C° 0 mm 2 mps 764 mmHg 48%
    02:00 +8°C° 0 mm 2 mps 764 mmHg 51%
    03:00 +7°C° 0 mm 2 mps 764 mmHg 54%
    04:00 +7°C° 0 mm 2 mps 764 mmHg 56%
    05:00 +7°C° 0 mm 3 mps 764 mmHg 59%
    06:00 +7°C° 0 mm 3 mps 764 mmHg 60%
    07:00 +5°C° 0 mm 3 mps 764 mmHg 61%
    08:00 +5°C° 0 mm 3 mps 764 mmHg 62%
    09:00 +8°C° 0 mm 3 mps 765 mmHg 56%
    10:00 +10°C° 0 mm 3 mps 765 mmHg 50%
    11:00 +11°C° 0 mm 3 mps 765 mmHg 44%
    12:00 +13°C° 0 mm 3 mps 764 mmHg 40%
    13:00 +14°C° 0 mm 3 mps 763 mmHg 36%
    14:00 +16°C° 0 mm 3 mps 763 mmHg 32%
    15:00 +16°C° 0 mm 2 mps 762 mmHg 33%
    16:00 +16°C° 0 mm 2 mps 762 mmHg 34%
    17:00 +16°C° 0 mm 2 mps 762 mmHg 34%
    18:00 +15°C° 0 mm 2 mps 762 mmHg 38%
    19:00 +14°C° 0 mm 2 mps 763 mmHg 41%
    20:00 +13°C° 0 mm 2 mps 763 mmHg 45%
    21:00 +13°C° 0 mm 2 mps 764 mmHg 47%
    22:00 +12°C° 0 mm 2 mps 764 mmHg 49%
    23:00 +12°C° 0 mm 2 mps 764 mmHg 51%

    25 January, Friday

    Time Temperature Precipitation Wind Pressure Humidity
    00:00 +10°C° 0 mm 2 mps 764 mmHg 51%
    01:00 +10°C° 0 mm 2 mps 764 mmHg 51%
    02:00 +10°C° 0 mm 2 mps 764 mmHg 51%
    03:00 +11°C° 0 mm 1 mps 764 mmHg 51%
    04:00 +11°C° 0 mm 1 mps 764 mmHg 50%
    05:00 +11°C° 0 mm 1 mps 764 mmHg 50%
    06:00 +10°C° 0 mm 1 mps 765 mmHg 51%
    07:00 +9°C° 0 mm 2 mps 766 mmHg 51%
    08:00 +9°C° 0 mm 2 mps 767 mmHg 52%
    09:00 +10°C° 0 mm 2 mps 767 mmHg 49%
    10:00 +11°C° 0 mm 3 mps 768 mmHg 47%
    11:00 +12°C° 0 mm 3 mps 768 mmHg 45%
    12:00 +13°C° 0 mm 4 mps 768 mmHg 41%
    13:00 +14°C° 0 mm 5 mps 767 mmHg 38%
    14:00 +15°C° 0 mm 5 mps 767 mmHg 34%
    15:00 +15°C° 0 mm 5 mps 767 mmHg 35%
    16:00 +15°C° 0 mm 6 mps 767 mmHg 36%
    17:00 +14°C° 0 mm 6 mps 768 mmHg 36%
    18:00 +13°C° 0 mm 6 mps 768 mmHg 41%
    19:00 +11°C° 0 mm 6 mps 769 mmHg 45%
    20:00 +10°C° 0 mm 6 mps 770 mmHg 49%
    21:00 +10°C° 0 mm 5 mps 770 mmHg 52%
    22:00 +9°C° 0 mm 5 mps 771 mmHg 55%
    23:00 +9°C° 0 mm 5 mps 771 mmHg 57%

    26 January, Saturday

    Time Temperature Precipitation Wind Pressure Humidity
    00:00 +8°C° 0 mm 4 mps 771 mmHg 60%
    01:00 +8°C° 0 mm 4 mps 771 mmHg 62%
    02:00 +7°C° 0 mm 4 mps 771 mmHg 65%
    03:00 +7°C° 0 mm 4 mps 771 mmHg 67%
    04:00 +7°C° 0 mm 3 mps 771 mmHg 68%
    05:00 +7°C° 0 mm 3 mps 771 mmHg 70%
    06:00 +7°C° 0 mm 3 mps 772 mmHg 70%
    07:00 +5°C° 0 mm 3 mps 772 mmHg 70%
    08:00 +5°C° 0 mm 3 mps 773 mmHg 71%
    09:00 +7°C° 0 mm 3 mps 773 mmHg 66%
    10:00 +9°C° 0 mm 3 mps 773 mmHg 61%
    11:00 +10°C° 0 mm 3 mps 773 mmHg 56%
    12:00 +11°C° 0 mm 3 mps 772 mmHg 53%
    13:00 +11°C° 0 mm 3 mps 772 mmHg 49%
    14:00 +13°C° 0 mm 2 mps 771 mmHg 46%
    15:00 +13°C° 0 mm 2 mps 771 mmHg 45%
    16:00 +13°C° 0 mm 2 mps 771 mmHg 44%
    17:00 +13°C° 0 mm 2 mps 770 mmHg 42%
    18:00 +13°C° 0 mm 2 mps 771 mmHg 45%
    19:00 +12°C° 0 mm 2 mps 771 mmHg 47%
    20:00 +10°C° 0 mm 2 mps 771 mmHg 50%
    21:00 +10°C° 0 mm 2 mps 771 mmHg 51%
    22:00 +9°C° 0 mm 2 mps 771 mmHg 52%
    23:00 +8°C° 0 mm 2 mps 771 mmHg 53%

    27 January, Sunday

    Time Temperature Precipitation Wind Pressure Humidity
    00:00 +8°C° 0 mm 2 mps 771 mmHg 53%
    01:00 +7°C° 0 mm 2 mps 771 mmHg 52%
    02:00 +7°C° 0 mm 2 mps 770 mmHg 52%
    03:00 +7°C° 0 mm 2 mps 770 mmHg 51%
    04:00 +6°C° 0 mm 2 mps 770 mmHg 51%
    05:00 +6°C° 0 mm 2 mps 770 mmHg 51%
    06:00 +6°C° 0 mm 2 mps 770 mmHg 51%
    07:00 +5°C° 0 mm 3 mps 770 mmHg 51%
    08:00 +5°C° 0 mm 3 mps 771 mmHg 50%
    09:00 +7°C° 0 mm 3 mps 770 mmHg 46%
    10:00 +8°C° 0 mm 3 mps 770 mmHg 41%
    11:00 +9°C° 0 mm 3 mps 770 mmHg 36%
    12:00 +10°C° 0 mm 3 mps 769 mmHg 33%
    13:00 +12°C° 0 mm 2 mps 768 mmHg 30%
    14:00 +13°C° 0 mm 2 mps 767 mmHg 27%
    15:00 +13°C° 0 mm 2 mps 767 mmHg 29%
    16:00 +13°C° 0 mm 1 mps 767 mmHg 30%
    17:00 +13°C° 0 mm 1 mps 767 mmHg 32%
    18:00 +13°C° 0 mm 1 mps 767 mmHg 33%
    19:00 +12°C° 0 mm 1 mps 767 mmHg 35%
    20:00 +12°C° 0 mm 2 mps 768 mmHg 36%
    21:00 +12°C° 0 mm 1 mps 768 mmHg 37%
    22:00 +12°C° 0 mm 1 mps 768 mmHg 39%
    23:00 +12°C° 0 mm 1 mps 768 mmHg 40%
    Show more